Погода в Осакаровке

Казахстан     50˚33′53″N   72˚34′06″E
темп.,
°C
ветер,
м/с
пор.,
м/с
влажн.,
%
обл.,
%
осадки,
мм/ч
давл.,
гПа
погр.,
м
5 декабря, сб
сб500:00−21˚всв4995100 0.0 1036219
03:00−22˚в599681 0.0 1036179
06:00−22˚в499780 0.0 1038154
09:00−21˚в5109691 0.0 1038213
12:00−19˚в6119483 0.1 1040277
15:00−18˚всв5109590 0.0 1039283
18:00−21˚всв599894 0.0 1041172
21:00−22˚в599987 0.0 1042149
6 декабря, вс
вс600:00−22˚в479978 0.0 1042113
03:00−22˚в469958 0.0 1042100
06:00−21˚в449835 0.0 104370
09:00−21˚вюв44970 0.0 104353
12:00−18˚юв24930 0.0 104491
15:00−17˚юв22900 0.0 104326
18:00−19˚юв22900 0.0 104220
21:00−19˚юв23880 0.0 104220
7 декабря, пн
пн700:00−18˚юв23830 0.0 104120
03:00−17˚юв23780 0.0 103920
06:00−16˚юв23780 0.0 103820
09:00−15˚вюв22790 0.0 103721
12:00−12˚в23820 0.0 103635
15:00−11˚в22790 0.0 103521
18:00−13˚в22750 0.0 103521
21:00−14˚ссв12730 0.0 103520
8 декабря, вт
вт800:00−15˚ююв11750 0.0 103520
03:00−16˚сз11790 0.0 103520
06:00−16˚зсз228210 0.0 103420
09:00−15˚з3391100 0.0 103540
12:00−14˚зюз4789100 0.0 1035194
15:00−14˚з5792100 0.0 1035246
18:00−15˚зюз4796100 0.1 1037197
21:00−15˚зюз589699 0.1 1038189
9 декабря, ср
ср900:00−15˚зюз589696 0.3 1040179
03:00−16˚зюз5109792 0.1 1040207
06:00−16˚зюз6119796 0.2 1040231
09:00−17˚юз71197100 0.1 1039243
12:00−15˚юз81396100 0.2 1038294
15:00−14˚юз91494100 0.2 1036337
18:00−17˚юз71299100 0.1 1040229
21:00−16˚юз71399100 0.0 1038232